sat.trackr.live / text

‹ back to catalog

STARLINK-34921

NORAD 65893 · 2025-224M

PAYLOAD ACTIVE UNKNOWN

§ Identity

Operator
Country
US
Launch date
2025-10-07
Launch site
AFETR
Launch vehicle
Mass (kg)
RCS (m²)

Purposes: comms

External: N2YO · Heavens-Above · Gunter

§ Orbital elements

Epoch: 2026-05-25T01:21:38.809152Z

Period
94.11 min
Inclination
53.1596°
Eccentricity
0.0001229
Mean motion
15.30204917 rev/d
Perigee alt
474.4 km
Apogee alt
476.0 km
Semi-major
6,853.3 km
B*
3.4959e-4
RAAN
16.8239°
Arg perigee
88.8548°
Mean anomaly
271.2594°
Rev number
3,656

§ Raw data

STARLINK-349211 65893U 25224M   26145.05669918  .00010010  00000+0  34959-3 0  99922 65893  53.1596  16.8239 0001229  88.8548 271.2594 15.30204917 36568

JSON: /api/v1/satellites/65893 · /tle

For live sub-satellite position, see the globe view (requires WebGL).

§ Visibility from observer

Set your observer location to see the next 7 days of passes ≥ 10°. The values pass through the URL so the page stays shareable.

No JS? Fill the form by hand. The geolocation button needs JavaScript.